SL-16 DEB, 22353

Orbit data source: Space-Track

SL-16 DEB, 22353 is space debris in LEO originally from a launch on Fri, 25 Dec 1992 UTC launched from the Tyuratam Missile And Space Complex (TTMTR). Debris objects in space refer to the collection of defunct objects orbiting the Earth. Examples of debris include non-operational satellites, rocket bodies, and fragments generated from explosions, collisions, or faulty payload assembly.

Loading next visibility...
Identifier
22353, 1992-093AS
Orbit
LEO
Country
Flag of CISCIS
Related business
Manufacturer
Unknown
Mission
Spacecraft
Bus & Motor
Unknown
Mass
Unknown
Launch date (UTC)
1992-12-25 (33 years ago)
Launch vehicle
Unknown
Launch site
Tyuratam Missile And Space Complex (TTMTR)
Object type
Payload
Rocket body
Debris
Shape & HBR
Unknown shape, 0.2 m
Radar Cross Section
Small (<0.1 m²)

Expand to show TLE details & history
Last TLE update: 1 day ago

TLE from 1 day ago
0 SL-16 DEB
1 22353U 92093AS  25304.61816726  .00001572  00000-0  82285-3 0  9992
2 22353  70.9738 352.6815 0112349 223.3564 300.7317 14.12684116679519
Epoch: 2025-10-31T14:50Z
TLE epoch observation values (Epoch: 2025-10-31T14:50:09.651Z)
Latitude
16.06149°
Longitude
-95.68618°
Altitude
811.109 km
Speed
7.47 km/s
True Right ascension
11h 08m 03s
True Declination
15° 58' 16"
Sunlit
Object was in daylight at epoch
Visualization orbit readout
Latitude
Unknown
Longitude
Unknown
Altitude
Unknown
Speed
Unknown
Apparent Right ascension
Unknown
Apparent Declination
Unknown
Sunlit
N/A
Visualization observer readout
Local Sidereal Time
13:59:01
Azimuth
Unknown
Elevation
Unknown
Doppler factor
Unknown
Orbital elements
Apogee altitude
929.317 km
Perigee altitude
766.944 km
Semi-major axis
7,226.268 km
Eccentricity
0.01123
Inclination
70.9738°
RAAN
352.6815°
Arg. of periapsis
223.3564°
True anomaly
299.61714°
Mean anomaly
300.7317°
Eccentric anomaly
300.17522°
Mean motion
3.53323 °/min
Orbital period
101.89 mins
BSTAR
0.00082285
Loading maneuver chart data...
Computing Atmospheric mass density...
Loading historical data...
Loading historical data...
Loading historical data...
Loading historical data...
Loading historical data...
Loading historical data...
Loading historical data...

Documentation

Showing up to 5 results
|